Location: Unspecified
(48.2082°N, 0.0000°E)
Time: 11:45:02
(UTC+00:00)

S-56A Canister/Altair - Pass Details

Date: 23 June 2019
Orbit: 633 x 2499 km, 38.9° (Epoch: 17 August)

Event Time Altitude Azimuth Distance (km) Brightness Sun altitude
Rises 17:05:33 0° 249° (WSW) 4,877 12.6 26.5°
Reaches altitude 10° 17:09:28 10° 243° (WSW) 3,569 12.0 25.8°
Maximum altitude 17:17:10 38° 179° (S) 1,579 9.3 24.6°
Drops below altitude 10° 17:22:34 10° 112° (ESE) 2,487 9.7 23.7°
Sets 17:24:51 0° 104° (ESE) 3,262 10.2 23.3°
